Weather in Bershet

Russia / Perm Krai     57°44′00″N   56°22′26″E
temp.,
°C
wind,
m/s
gust,
m/s
humid.,
%
clouds,
%
prec.,
mm/h
press.,
hPa
HPBL,
m
24 january, sun
sun2423:00−16se4895100 0.9 1029390
02:00−16se4994100 0.1 1028395
05:00−17ese3896100 1.1 1025304
08:00−14sse4994100 0.3 1026423
11:00−13sse51093100 0.6 1025420
14:00−10s4893100 0.8 1023416
17:00−9ssw3895100 1.3 1022331
20:00−8wsw2396100 0.4 102290
25 january, mon
mon2523:00−7sw1296100 0.6 102321
02:00−5ssw229698 0.0 102429
05:00−1wsw1198100 0.1 102424
08:00+1sw2499100 0.1 1024136
11:00−6ese1196100 0.7 102660
14:00−5ese2297100 0.4 102690
17:000sw51097100 0.7 1025487
20:00−2sw41093100 0.1 1026346
26 january, tue
tue2623:00−2sw51292100 0.2 1026437
02:00−3sw41193100 0.1 1027434
05:00−4sw5129196 0.1 1027449
08:00−4sw5109399 0.0 1028538
11:00−3sw41091100 0.1 1028654
14:00−3sw51090100 0.1 1027745
17:00−3sw41092100 0.1 1025735
20:00−4sw31092100 0.1 1026677
27 january, wed
wed2723:00−3sw41093100 0.3 1025586
02:00−3sw3993100 0.2 1025620
05:00−4sw41092100 0.2 1025609
08:00−9ssw3993100 0.1 1023336
11:00−7s4893100 0.1 1025351
14:00−7ssw4790100 0.1 1026470
17:00−4sw269798 0.9 1025347
20:00−8s499397 0.1 1026314
28 january, thu
thu2823:00−8s389598 0.1 1025229
02:00−8s3993100 0.0 1025224
05:00−8s31089100 0.0 1024318
08:00−7s41186100 0.0 1023364
11:00−6sse4796100 0.2 1031266
14:00−5sse3694100 0.0 1030326
17:00−7sse3695100 0.0 1030195
20:00−6s41286100 0.0 1020379